Regional Weather Roundup
Issued by NWS

Home | Current Version | Previous Version | Text Only | Print | Product List | Glossary Off
Versions: 1 2 3 4 5 6 7 8 9 10 11 12 13 14 15 16 17 18 19 20 21 22 23 24 25 26 27 28 29 30 31 32 33 34 35 36 37 38 39 40 41 42 43 44 45 46 47 48 49 50

000
ASUS45 KCYS 251410
RWRWY

WYOMING REGIONAL WEATHER ROUNDUP
NATIONAL WEATHER SERVICE CHEYENNE WY
700 AM MST SAT FEB 25 2017

NOTE:  "FAIR" INDICATES FEW OR NO CLOUDS BELOW 12,000 FEET
WITH NO SIGNIFICANT WEATHER AND/OR OBSTRUCTIONS TO VISIBILITY.

WYZ001-251500-
YELLOWSTONE NATIONAL PARK

CITY           SKY/WX    TMP DP  RH WIND       PRES   REMARKS
LK YELLOWSTONE   N/A      2  -1  88 CALM      29.83F
W YELLOWSTONE  NOT AVBL

$$
WYZ002>013-054>058-071-098>099-251500-
NORTHERN WYOMING

CITY           SKY/WX    TMP DP  RH WIND       PRES   REMARKS
JACKSON        CLOUDY     9   3  78 SW3       29.93F
CODY           FAIR      20   2  45 W6        29.87F WCI  12
GREYBULL       FAIR      22  20  92 S5        29.92F WCI  16
WORLAND        FAIR      15  13  91 S6        29.91F WCI   6
SHERIDAN       MOCLDY    19  14  81 S8        29.90F WCI   9
BUFFALO        FAIR      15   8  73 S6        29.86F WCI   6
GILLETTE       FAIR      20  17  88 W8        29.89S WCI  10
HULETT         CLOUDY    23  19  86 SW3       29.88F
NEWCASTLE      CLOUDY    18  16  93 CALM      29.91F

$$
WYZ014>020-022>026-101>103-251500-
CENTRAL WYOMING

CITY           SKY/WX    TMP DP  RH WIND       PRES   REMARKS
BIG PINEY      FAIR      -7 -12  79 E6        29.92F WCI -20
PINEDALE       FAIR      -9 -15  77 NW5       29.93F WCI -21
DUBOIS         FAIR       5  -6  61 NW17      29.82F WCI -14
LANDER         FAIR       3  -3  76 CALM      29.88F
RIVERTON       FAIR      10  -1  61 W13       29.89F WCI  -5
CASPER         FAIR      11   3  70 SW15      29.89F WCI  -5
DOUGLAS        FAIR       0  -5  79 CALM      29.91F

$$
WYZ021-027>030-104>119-251500-
SOUTHERN WYOMING

CITY           SKY/WX    TMP DP  RH WIND       PRES   REMARKS
EVANSTON       FAIR       2  -4  76 SW10      29.94F WCI -14
FORT BRIDGER   FAIR       8   1  71 W10       29.97F WCI  -6
ROCK SPRINGS   FAIR       4  -4  69 W13       29.95S WCI -13
DIXON            N/A      1  -4  80 CALM      30.02S
RAWLINS        FAIR       6  -1  73 SW16      29.92S WCI -12
SARATOGA       FAIR       3  -4  72 S9        29.93F WCI -11
LARAMIE        FAIR       8  -3  61 S20       29.85F WCI -11
CHEYENNE       FAIR      11  -1  58 W9        29.89S WCI  -2
TORRINGTON     FAIR       3   0  87 W7        29.95S WCI  -9
PINE BLUFFS    FAIR       3   0  85 MISG      29.95S

$$



USA.gov is the U.S. government's official web portal to all federal, state and local government web resources and services.